CZ-4 DEB

基本信息
目录编号:
37623
目录名称:
CZ-4 DEB
国际标识:
1990-081DK
轨道中心:
EARTH
物体状态:
在轨
发射日期:
1990-09-03 UTC
轨道信息
数据来源: 国际轨道数据
星历时间: 2026-06-29T02:19:37+0800
半长轴: 7204.819km
偏心率: 0.0022659
轨道倾角: 98.737°
近地点辐角: 107.472°
升交点赤经: 167.019°
平近点角: 252.893°
近地点: 810.356km
远地点: 843.008km
周期: 101.437分钟
每日圈数: 14.196073
详细信息
发射场:
TSC
轨道高度:
LEO
数据来源:
AOE Integration Group
参考系:
TEME
时间系统:
UTC
历元类型:
SGP4
2D轨道图
3D轨道图
轨道高度分析图
轨道倾角分析图
轨道综合分析图
查看轨道综合分析图